Simultaneous Nadir Overpasses (SNOs) Predictions

Prediction of SNOs between AQUA and METOP-A Satellite Orbit:

Table of predicted SNOs for the next 14.0 days since TLE Epoch: 4/13/2012
Index Date (AQUA) Time (AQUA) AQUA Lat,Lon Date (METOP-A) Time (METOP-A) METOP-A Lat,Lon Distance(km) Time Diff (sec)
1 04/14/2012 18:18:20 -73.80, 79.68 04/14/2012 18:17:58 -73.80, 79.67 0.86 22
2 04/14/2012 19:07:49 73.88,-112.85 04/14/2012 19:08:37 73.85,-112.86 2.81 48
3 04/17/2012 13:02:58 73.16, -20.16 04/17/2012 13:01:52 73.09, -22.85 87.22 66
4 04/17/2012 13:52:36 -73.81, 146.11 04/17/2012 13:52:19 -73.81, 146.12 0.27 17
5 04/17/2012 14:42:05 73.89, -46.43 04/17/2012 14:42:58 73.87, -46.42 2.78 53
6 04/20/2012 08:37:18 73.41, 45.78 04/20/2012 08:36:09 73.30, 44.04 56.51 69
7 04/20/2012 09:26:52 -73.84,-147.51 04/20/2012 09:26:40 -73.83,-147.43 2.99 12
8 04/20/2012 10:16:20 73.87, 20.05 04/20/2012 10:17:19 73.88, 20.04 1.18 59
9 04/23/2012 04:11:36 73.62, 111.77 04/23/2012 04:10:24 73.58, 111.07 22.63 72
10 04/23/2012 05:01:06 -73.84, -81.07 04/23/2012 05:01:00 -73.85, -80.96 3.60 6
11 04/23/2012 05:50:34 73.88, 86.49 04/23/2012 05:51:39 73.90, 86.50 2.95 65
12 04/25/2012 23:45:53 73.75, 177.94 04/25/2012 23:44:42 73.75, 177.89 1.54 71
13 04/26/2012 00:35:20 -73.81, -14.55 04/26/2012 00:35:22 -73.83, -14.60 2.53 2




NCC Satellite Simultaneous Nadir Overpasses (SNOs) Prediction Service
